BON101G FAOR-FACT

Flight info

Callsign BON101G
Flight time 1h 45m
Altitude 40000
Route RAGUL3A RAGUL DCT UTEBA DCT APMIN DCT EVESI DCT EGNOM DCT NOKOX DCT ERDAS ERDAS1B
Aircraft B772/H-SDE2E3FGHIJ5LORVWXY/LB1D1

Departure

Time 2026-05-06 18:26
Airport O.R. Tambo International Airport (FAOR)

Arrival

Time 2026-05-06 20:11
Airport Cape Town International Airport (FACT)
Time Latitude Longitude Altitude Speed Heading
2026-05-06 17:40 -26.13029 28.23474 5555 ft 0 kts
2026-05-06 18:07 -26.13032 28.23474 5555 ft 0 kts
2026-05-06 18:07 -26.13035 28.23473 5555 ft 1 kts
2026-05-06 18:07 -26.13040 28.23473 5527 ft 1 kts
2026-05-06 18:07 -26.13047 28.23472 5555 ft 1 kts
2026-05-06 18:08 -26.13053 28.23471 5558 ft 1 kts
2026-05-06 18:08 -26.13060 28.23470 5557 ft 1 kts
2026-05-06 18:08 -26.13066 28.23469 5554 ft 1 kts
2026-05-06 18:08 -26.13075 28.23468 5554 ft 1 kts
2026-05-06 18:09 -26.13084 28.23466 5554 ft 1 kts 10°
2026-05-06 18:09 -26.13092 28.23464 5554 ft 1 kts 30°
2026-05-06 18:09 -26.13099 28.23459 5555 ft 1 kts 51°
2026-05-06 18:09 -26.13104 28.23451 5552 ft 1 kts 73°
2026-05-06 18:10 -26.13106 28.23444 5552 ft 0 kts 87°
2026-05-06 18:13 -26.13107 28.23461 5553 ft 6 kts 95°
2026-05-06 18:13 -26.13114 28.23504 5556 ft 6 kts 101°
2026-05-06 18:13 -26.13120 28.23546 5558 ft 6 kts 97°
2026-05-06 18:14 -26.13124 28.23589 5557 ft 6 kts 96°
2026-05-06 18:14 -26.13131 28.23644 5555 ft 10 kts 105°
2026-05-06 18:14 -26.13213 28.23675 5555 ft 17 kts 190°
2026-05-06 18:14 -26.13338 28.23639 5556 ft 19 kts 195°
2026-05-06 18:15 -26.13466 28.23599 5557 ft 19 kts 195°
2026-05-06 18:15 -26.13592 28.23560 5557 ft 19 kts 195°
2026-05-06 18:15 -26.13721 28.23520 5558 ft 19 kts 195°
2026-05-06 18:15 -26.13847 28.23482 5559 ft 19 kts 194°
2026-05-06 18:16 -26.13974 28.23443 5564 ft 19 kts 195°
2026-05-06 18:16 -26.14070 28.23413 5567 ft 13 kts 196°
2026-05-06 18:16 -26.14159 28.23385 5568 ft 13 kts 195°
2026-05-06 18:16 -26.14248 28.23357 5567 ft 13 kts 195°
2026-05-06 18:17 -26.14338 28.23329 5568 ft 13 kts 196°
2026-05-06 18:17 -26.14427 28.23301 5569 ft 13 kts 196°
2026-05-06 18:17 -26.14488 28.23284 5569 ft 1 kts 189°
2026-05-06 18:17 -26.14496 28.23283 5570 ft 1 kts 186°
2026-05-06 18:18 -26.14505 28.23283 5570 ft 1 kts 183°
2026-05-06 18:18 -26.14510 28.23283 5570 ft 0 kts 181°
2026-05-06 18:20 -26.14511 28.23283 5570 ft 2 kts 181°
2026-05-06 18:20 -26.14539 28.23284 5571 ft 4 kts 174°
2026-05-06 18:20 -26.14568 28.23294 5571 ft 4 kts 153°
2026-05-06 18:20 -26.14573 28.23297 5570 ft 0 kts 147°
2026-05-06 18:22 -26.14579 28.23302 5569 ft 5 kts 141°
2026-05-06 18:23 -26.14599 28.23336 5569 ft 5 kts 114°
2026-05-06 18:23 -26.14611 28.23375 5569 ft 5 kts 107°
2026-05-06 18:23 -26.14617 28.23415 5569 ft 5 kts 84°
2026-05-06 18:23 -26.14595 28.23446 5568 ft 5 kts 37°
2026-05-06 18:24 -26.14565 28.23461 5568 ft 0 kts 18°
2026-05-06 18:24 -26.14548 28.23466 5568 ft 3 kts 14°
2026-05-06 18:24 -26.14544 28.23467 5568 ft 0 kts 14°
2026-05-06 18:25 -26.14457 28.23493 5567 ft 43 kts 15°
2026-05-06 18:25 -26.13937 28.23653 5567 ft 111 kts 16°
2026-05-06 18:25 -26.12993 28.23935 5556 ft 168 kts 14°
2026-05-06 18:25 -26.11844 28.24321 6129 ft 174 kts 12°
2026-05-06 18:26 -26.10677 28.24669 6921 ft 174 kts
2026-05-06 18:26 -26.09490 28.25013 7570 ft 177 kts
2026-05-06 18:26 -26.08246 28.25368 8042 ft 197 kts
2026-05-06 18:26 -26.06886 28.25671 8656 ft 192 kts 353°
2026-05-06 18:27 -26.05573 28.25363 9021 ft 206 kts 329°
2026-05-06 18:27 -26.04424 28.24235 8774 ft 236 kts 296°
2026-05-06 18:27 -26.04057 28.22475 9322 ft 238 kts 265°
2026-05-06 18:27 -26.04443 28.20668 9998 ft 248 kts 252°
2026-05-06 18:28 -26.05051 28.18824 10583 ft 260 kts 250°
2026-05-06 18:28 -26.05721 28.16923 11330 ft 266 kts 250°
2026-05-06 18:28 -26.06425 28.15040 12157 ft 268 kts 244°
2026-05-06 18:28 -26.07607 28.13377 12856 ft 281 kts 229°
2026-05-06 18:29 -26.09051 28.11897 13855 ft 284 kts 226°
2026-05-06 18:29 -26.10541 28.10438 14760 ft 287 kts 226°
2026-05-06 18:29 -26.12061 28.08927 15359 ft 303 kts 227°
2026-05-06 18:29 -26.13674 28.07278 15787 ft 323 kts 228°
2026-05-06 18:30 -26.15335 28.05545 16598 ft 331 kts 228°
2026-05-06 18:30 -26.17018 28.03762 17519 ft 335 kts 229°
2026-05-06 18:30 -26.18699 28.01957 18503 ft 338 kts 230°
2026-05-06 18:30 -26.20389 28.00123 19309 ft 341 kts 230°
2026-05-06 18:31 -26.22097 27.98253 20074 ft 347 kts 230°
2026-05-06 18:31 -26.23824 27.96353 20872 ft 352 kts 231°
2026-05-06 18:31 -26.25575 27.94419 21663 ft 356 kts 231°
2026-05-06 18:31 -26.27346 27.92460 22463 ft 361 kts 231°
2026-05-06 18:32 -26.29139 27.90471 23242 ft 367 kts 231°
2026-05-06 18:32 -26.30963 27.88447 23969 ft 372 kts 231°
2026-05-06 18:32 -26.32808 27.86399 24642 ft 376 kts 232°
2026-05-06 18:32 -26.34670 27.84331 25333 ft 380 kts 232°
2026-05-06 18:33 -26.36552 27.82240 26018 ft 384 kts 232°
2026-05-06 18:33 -26.38450 27.80131 26689 ft 387 kts 232°
2026-05-06 18:33 -26.40370 27.77994 27327 ft 392 kts 233°
2026-05-06 18:33 -26.42308 27.75835 27940 ft 396 kts 233°
2026-05-06 18:34 -26.44262 27.73659 28576 ft 399 kts 233°
2026-05-06 18:34 -26.46239 27.71456 29170 ft 403 kts 233°
2026-05-06 18:34 -26.48231 27.69234 29763 ft 407 kts 234°
2026-05-06 18:34 -26.50220 27.67015 30294 ft 411 kts 234°
2026-05-06 18:35 -26.52250 27.64749 30732 ft 415 kts 234°
2026-05-06 18:35 -26.54297 27.62464 31156 ft 418 kts 234°
2026-05-06 18:35 -26.56359 27.60160 31599 ft 421 kts 234°
2026-05-06 18:35 -26.58434 27.57842 32035 ft 423 kts 234°
2026-05-06 18:36 -26.60525 27.55505 32442 ft 426 kts 234°
2026-05-06 18:36 -26.62627 27.53152 32793 ft 430 kts 234°
2026-05-06 18:36 -26.64751 27.50772 33138 ft 434 kts 234°
2026-05-06 18:36 -26.66886 27.48380 33498 ft 437 kts 234°
2026-05-06 18:37 -26.69039 27.45967 33856 ft 439 kts 234°
2026-05-06 18:37 -26.70500 27.44330 34053 ft 441 kts 234°
2026-05-06 18:37 -26.73383 27.41095 34384 ft 445 kts 234°
2026-05-06 18:37 -26.75578 27.38632 34658 ft 447 kts 234°
2026-05-06 18:38 -26.77774 27.36168 35010 ft 446 kts 233°
2026-05-06 18:38 -26.79960 27.33715 35422 ft 444 kts 233°
2026-05-06 18:38 -26.82135 27.31274 35845 ft 443 kts 233°
2026-05-06 18:38 -26.84307 27.28833 36170 ft 442 kts 233°
2026-05-06 18:39 -26.86474 27.26392 36528 ft 441 kts 233°
2026-05-06 18:39 -26.88636 27.23954 36880 ft 440 kts 233°
2026-05-06 18:39 -26.90790 27.21526 37266 ft 439 kts 233°
2026-05-06 18:40 -26.95079 27.16690 38070 ft 436 kts 233°
2026-05-06 18:40 -26.97190 27.14306 38404 ft 436 kts 233°
2026-05-06 18:40 -26.99319 27.11898 38760 ft 435 kts 233°
2026-05-06 18:40 -27.01455 27.09482 39014 ft 435 kts 232°
2026-05-06 18:41 -27.03588 27.07066 39225 ft 437 kts 233°
2026-05-06 18:41 -27.05729 27.04640 39401 ft 438 kts 232°
2026-05-06 18:41 -27.07874 27.02210 39618 ft 439 kts 232°
2026-05-06 18:41 -27.10025 26.99771 39830 ft 440 kts 232°
2026-05-06 18:42 -27.12183 26.97324 39967 ft 442 kts 232°
2026-05-06 18:42 -27.16533 26.92384 40067 ft 448 kts 232°
2026-05-06 18:43 -27.20941 26.87372 40078 ft 454 kts 232°
2026-05-06 18:43 -27.25411 26.82288 40079 ft 459 kts 232°
2026-05-06 18:44 -27.29907 26.77170 40072 ft 461 kts 232°
2026-05-06 18:44 -27.34416 26.72031 40062 ft 462 kts 232°
2026-05-06 18:45 -27.38920 26.66891 40061 ft 461 kts 232°
2026-05-06 18:45 -27.43383 26.61791 40054 ft 460 kts 232°
2026-05-06 18:46 -27.47862 26.56665 40057 ft 458 kts 232°
2026-05-06 18:46 -27.52327 26.51548 40049 ft 456 kts 232°
2026-05-06 18:47 -27.56736 26.46493 40052 ft 450 kts 232°
2026-05-06 18:47 -27.61123 26.41450 40052 ft 451 kts 232°
2026-05-06 18:48 -27.65523 26.36385 40039 ft 453 kts 232°
2026-05-06 18:48 -27.69931 26.31308 40045 ft 454 kts 232°
2026-05-06 18:49 -27.74351 26.26211 40040 ft 454 kts 231°
2026-05-06 18:49 -27.78771 26.21108 40041 ft 455 kts 231°
2026-05-06 18:50 -27.83193 26.15998 40038 ft 455 kts 231°
2026-05-06 18:50 -27.87611 26.10885 40031 ft 454 kts 231°
2026-05-06 18:51 -27.92024 26.05772 40034 ft 454 kts 231°
2026-05-06 18:51 -27.96433 26.00656 40031 ft 454 kts 231°
2026-05-06 18:52 -28.00838 25.95539 40032 ft 454 kts 231°
2026-05-06 18:52 -28.05241 25.90418 40028 ft 454 kts 231°
2026-05-06 18:53 -28.09642 25.85291 40027 ft 454 kts 231°
2026-05-06 18:53 -28.14046 25.80156 40027 ft 454 kts 231°
2026-05-06 18:54 -28.18445 25.75020 40020 ft 454 kts 231°
2026-05-06 18:54 -28.22851 25.69870 40016 ft 455 kts 231°
2026-05-06 18:55 -28.27253 25.64718 40019 ft 455 kts 231°
2026-05-06 18:55 -28.30910 25.60433 40021 ft 455 kts 231°
2026-05-06 18:56 -28.35312 25.55268 40011 ft 455 kts 231°
2026-05-06 18:56 -28.39711 25.50100 40011 ft 455 kts 231°
2026-05-06 18:57 -28.44114 25.44921 40011 ft 455 kts 231°
2026-05-06 18:57 -28.48515 25.39739 39992 ft 456 kts 231°
2026-05-06 18:58 -28.52914 25.34551 40004 ft 456 kts 231°
2026-05-06 18:58 -28.57315 25.29355 40007 ft 456 kts 231°
2026-05-06 18:59 -28.61715 25.24154 39991 ft 456 kts 230°
2026-05-06 18:59 -28.66119 25.18941 39988 ft 457 kts 230°
2026-05-06 19:00 -28.70515 25.13730 39997 ft 457 kts 230°
2026-05-06 19:00 -28.74916 25.08507 39992 ft 457 kts 230°
2026-05-06 19:01 -28.79283 25.03317 40001 ft 456 kts 230°
2026-05-06 19:01 -28.83676 24.98090 40016 ft 456 kts 230°
2026-05-06 19:02 -28.88066 24.92859 40016 ft 456 kts 230°
2026-05-06 19:02 -28.92455 24.87624 40015 ft 457 kts 230°
2026-05-06 19:03 -28.96843 24.82382 40016 ft 457 kts 230°
2026-05-06 19:03 -29.01232 24.77132 40009 ft 457 kts 230°
2026-05-06 19:04 -29.05618 24.71879 39999 ft 457 kts 230°
2026-05-06 19:04 -29.10002 24.66621 39986 ft 457 kts 230°
2026-05-06 19:05 -29.14377 24.61367 39981 ft 456 kts 230°
2026-05-06 19:05 -29.18752 24.56106 39981 ft 456 kts 230°
2026-05-06 19:06 -29.23118 24.50850 39983 ft 456 kts 230°
2026-05-06 19:06 -29.27486 24.45583 39984 ft 456 kts 230°
2026-05-06 19:07 -29.31850 24.40316 39981 ft 456 kts 230°
2026-05-06 19:07 -29.36211 24.35043 39983 ft 456 kts 230°
2026-05-06 19:08 -29.40572 24.29765 39985 ft 456 kts 230°
2026-05-06 19:08 -29.44926 24.24487 39984 ft 456 kts 230°
2026-05-06 19:09 -29.49285 24.19196 39982 ft 456 kts 230°
2026-05-06 19:09 -29.53635 24.13910 39983 ft 456 kts 230°
2026-05-06 19:10 -29.57994 24.08605 39980 ft 456 kts 230°
2026-05-06 19:10 -29.62343 24.03306 39987 ft 456 kts 230°
2026-05-06 19:11 -29.66687 23.98004 39984 ft 455 kts 230°
2026-05-06 19:11 -29.71001 23.92734 39983 ft 455 kts 230°
2026-05-06 19:12 -29.75369 23.87389 39984 ft 455 kts 230°
2026-05-06 19:12 -29.79702 23.82080 39991 ft 455 kts 230°
2026-05-06 19:13 -29.84006 23.76800 39989 ft 455 kts 230°
2026-05-06 19:13 -29.88367 23.71443 39989 ft 455 kts 230°
2026-05-06 19:14 -29.92698 23.66114 39995 ft 455 kts 230°
2026-05-06 19:14 -29.97001 23.60814 39990 ft 456 kts 230°
2026-05-06 19:15 -30.01330 23.55473 39992 ft 456 kts 230°
2026-05-06 19:15 -30.05656 23.50129 39996 ft 456 kts 230°
2026-05-06 19:16 -30.09986 23.44774 39996 ft 456 kts 230°
2026-05-06 19:16 -30.14310 23.39417 39999 ft 456 kts 230°
2026-05-06 19:17 -30.18633 23.34055 39995 ft 456 kts 230°
2026-05-06 19:17 -30.22953 23.28689 39997 ft 456 kts 230°
2026-05-06 19:18 -30.27270 23.23320 39999 ft 455 kts 230°
2026-05-06 19:18 -30.31583 23.17948 39997 ft 455 kts 230°
2026-05-06 19:19 -30.35890 23.12575 40004 ft 455 kts 230°
2026-05-06 19:19 -30.40197 23.07196 40006 ft 455 kts 230°
2026-05-06 19:20 -30.44499 23.01815 40013 ft 455 kts 229°
2026-05-06 19:20 -30.48799 22.96429 40007 ft 455 kts 229°
2026-05-06 19:21 -30.53099 22.91036 40013 ft 455 kts 229°
2026-05-06 19:21 -30.57399 22.85635 40013 ft 455 kts 229°
2026-05-06 19:22 -30.61699 22.80226 40016 ft 456 kts 229°
2026-05-06 19:22 -30.65993 22.74818 40023 ft 456 kts 229°
2026-05-06 19:23 -30.70287 22.69401 40025 ft 456 kts 229°
2026-05-06 19:23 -30.74581 22.63977 40021 ft 456 kts 229°
2026-05-06 19:24 -30.78844 22.58584 40034 ft 456 kts 229°
2026-05-06 19:24 -30.83130 22.53153 40036 ft 456 kts 229°
2026-05-06 19:25 -30.87412 22.47721 40024 ft 455 kts 229°
2026-05-06 19:25 -30.91699 22.42294 40027 ft 455 kts 229°
2026-05-06 19:26 -30.96023 22.36923 40031 ft 454 kts 229°
2026-05-06 19:26 -31.00353 22.31564 40035 ft 454 kts 228°
2026-05-06 19:27 -31.04673 22.26199 40044 ft 453 kts 228°
2026-05-06 19:27 -31.08981 22.20830 40050 ft 453 kts 228°
2026-05-06 19:28 -31.13283 22.15458 40053 ft 453 kts 228°
2026-05-06 19:28 -31.17577 22.10088 40054 ft 452 kts 228°
2026-05-06 19:29 -31.21875 22.04706 40062 ft 453 kts 228°
2026-05-06 19:29 -31.26140 21.99358 40061 ft 453 kts 228°
2026-05-06 19:30 -31.30434 21.93966 40064 ft 453 kts 228°
2026-05-06 19:30 -31.34727 21.88567 40065 ft 453 kts 228°
2026-05-06 19:31 -31.39023 21.83157 40065 ft 454 kts 228°
2026-05-06 19:31 -31.45462 21.75033 40069 ft 454 kts 228°
2026-05-06 19:32 -31.49752 21.69611 40070 ft 454 kts 228°
2026-05-06 19:32 -31.54043 21.64180 40072 ft 454 kts 228°
2026-05-06 19:33 -31.58334 21.58741 40071 ft 454 kts 229°
2026-05-06 19:33 -31.62621 21.53300 40076 ft 454 kts 228°
2026-05-06 19:34 -31.66908 21.47849 40078 ft 455 kts 228°
2026-05-06 19:34 -31.71199 21.42387 40078 ft 455 kts 228°
2026-05-06 19:35 -31.75489 21.36917 40078 ft 455 kts 228°
2026-05-06 19:35 -31.79780 21.31437 40084 ft 456 kts 229°
2026-05-06 19:36 -31.84068 21.25953 40086 ft 456 kts 228°
2026-05-06 19:36 -31.88358 21.20459 40092 ft 456 kts 228°
2026-05-06 19:37 -31.92649 21.14956 40084 ft 456 kts 228°
2026-05-06 19:37 -31.96217 21.10374 40088 ft 456 kts 228°
2026-05-06 19:38 -32.01198 21.03967 40091 ft 456 kts 228°
2026-05-06 19:38 -32.05477 20.98455 40100 ft 456 kts 228°
2026-05-06 19:39 -32.09753 20.92938 40095 ft 456 kts 228°
2026-05-06 19:39 -32.14027 20.87414 40097 ft 456 kts 228°
2026-05-06 19:40 -32.18296 20.81890 40106 ft 455 kts 228°
2026-05-06 19:40 -32.22564 20.76359 40113 ft 455 kts 228°
2026-05-06 19:41 -32.26827 20.70825 40117 ft 455 kts 228°
2026-05-06 19:41 -32.31091 20.65281 40114 ft 456 kts 228°
2026-05-06 19:42 -32.35349 20.59739 40124 ft 456 kts 228°
2026-05-06 19:42 -32.39612 20.54179 40130 ft 456 kts 228°
2026-05-06 19:43 -32.43876 20.48611 40128 ft 456 kts 228°
2026-05-06 19:43 -32.47416 20.43982 40133 ft 456 kts 228°
2026-05-06 19:44 -32.51677 20.38402 40033 ft 457 kts 228°
2026-05-06 19:44 -32.53802 20.35616 39912 ft 456 kts 228°
2026-05-06 19:44 -32.56610 20.31932 39755 ft 453 kts 228°
2026-05-06 19:45 -32.60133 20.27304 39562 ft 450 kts 228°
2026-05-06 19:45 -32.62902 20.23663 39394 ft 449 kts 228°
2026-05-06 19:45 -32.64320 20.21796 39168 ft 452 kts 228°
2026-05-06 19:46 -32.66426 20.19022 38843 ft 453 kts 228°
2026-05-06 19:46 -32.68521 20.16261 38421 ft 447 kts 228°
2026-05-06 19:46 -32.70588 20.13534 38009 ft 442 kts 227°
2026-05-06 19:46 -32.73294 20.09961 37491 ft 437 kts 227°
2026-05-06 19:47 -32.74640 20.08182 37218 ft 437 kts 227°
2026-05-06 19:47 -32.76695 20.05466 36809 ft 436 kts 227°
2026-05-06 19:47 -32.78692 20.02824 36253 ft 436 kts 227°
2026-05-06 19:47 -32.80725 20.00132 35557 ft 439 kts 227°
2026-05-06 19:48 -32.82758 19.97439 34498 ft 436 kts 226°
2026-05-06 19:48 -32.84785 19.94752 32792 ft 437 kts 226°
2026-05-06 19:48 -32.86821 19.92053 31145 ft 438 kts 227°
2026-05-06 19:48 -32.88843 19.89368 29605 ft 431 kts 227°
2026-05-06 19:49 -32.90820 19.86739 28036 ft 427 kts 227°
2026-05-06 19:49 -32.92819 19.84081 27322 ft 427 kts 227°
2026-05-06 19:49 -32.94769 19.81483 26913 ft 417 kts 227°
2026-05-06 19:49 -32.96692 19.78922 26427 ft 411 kts 227°
2026-05-06 19:50 -32.98580 19.76406 25949 ft 405 kts 227°
2026-05-06 19:50 -33.00445 19.73920 25484 ft 400 kts 227°
2026-05-06 19:50 -33.02290 19.71458 25021 ft 395 kts 227°
2026-05-06 19:50 -33.04101 19.69035 24569 ft 390 kts 227°
2026-05-06 19:51 -33.05898 19.66626 24108 ft 386 kts 227°
2026-05-06 19:51 -33.07673 19.64243 23630 ft 382 kts 227°
2026-05-06 19:51 -33.09430 19.61884 23129 ft 378 kts 227°
2026-05-06 19:51 -33.11165 19.59552 22647 ft 374 kts 227°
2026-05-06 19:52 -33.12881 19.57244 22191 ft 369 kts 227°
2026-05-06 19:52 -33.14570 19.54971 21766 ft 364 kts 227°
2026-05-06 19:52 -33.16243 19.52719 21330 ft 360 kts 227°
2026-05-06 19:52 -33.17898 19.50490 20904 ft 357 kts 227°
2026-05-06 19:53 -33.19532 19.48287 20484 ft 353 kts 227°
2026-05-06 19:53 -33.21150 19.46105 20068 ft 349 kts 227°
2026-05-06 19:53 -33.22756 19.43938 19644 ft 346 kts 227°
2026-05-06 19:53 -33.24348 19.41787 19233 ft 344 kts 227°
2026-05-06 19:54 -33.25925 19.39658 18831 ft 341 kts 227°
2026-05-06 19:54 -33.27494 19.37537 18396 ft 340 kts 227°
2026-05-06 19:54 -33.29054 19.35426 17931 ft 338 kts 226°
2026-05-06 19:54 -33.30583 19.33356 17509 ft 335 kts 226°
2026-05-06 19:55 -33.32114 19.31282 17079 ft 331 kts 226°
2026-05-06 19:55 -33.33073 19.29982 16824 ft 329 kts 226°
2026-05-06 19:55 -33.34579 19.27941 16409 ft 326 kts 226°
2026-05-06 19:55 -33.36074 19.25913 16013 ft 323 kts 226°
2026-05-06 19:56 -33.37555 19.23903 15610 ft 321 kts 226°
2026-05-06 19:56 -33.39025 19.21908 15206 ft 318 kts 226°
2026-05-06 19:56 -33.40485 19.19925 14820 ft 316 kts 225°
2026-05-06 19:56 -33.41898 19.17928 14428 ft 315 kts 229°
2026-05-06 19:57 -33.43167 19.15794 14035 ft 314 kts 232°
2026-05-06 19:57 -33.44371 19.13628 13599 ft 312 kts 233°
2026-05-06 19:57 -33.45559 19.11468 13181 ft 310 kts 233°
2026-05-06 19:57 -33.46742 19.09324 12750 ft 306 kts 233°
2026-05-06 19:58 -33.47915 19.07212 12386 ft 303 kts 233°
2026-05-06 19:58 -33.49078 19.05124 12006 ft 300 kts 232°
2026-05-06 19:58 -33.50238 19.03051 11626 ft 298 kts 232°
2026-05-06 19:58 -33.51389 19.00998 11253 ft 296 kts 232°
2026-05-06 19:59 -33.52534 18.98961 10886 ft 294 kts 232°
2026-05-06 19:59 -33.53673 18.96935 10507 ft 292 kts 232°
2026-05-06 19:59 -33.54797 18.94934 10305 ft 284 kts 232°
2026-05-06 19:59 -33.55885 18.92995 10096 ft 278 kts 232°
2026-05-06 20:00 -33.56962 18.91077 9710 ft 277 kts 232°
2026-05-06 20:00 -33.58036 18.89167 9379 ft 275 kts 232°
2026-05-06 20:00 -33.59104 18.87266 9032 ft 273 kts 232°
2026-05-06 20:00 -33.60161 18.85381 8703 ft 271 kts 232°
2026-05-06 20:01 -33.61211 18.83508 8396 ft 270 kts 232°
2026-05-06 20:01 -33.62257 18.81642 8058 ft 269 kts 232°
2026-05-06 20:01 -33.63303 18.79776 7697 ft 270 kts 232°
2026-05-06 20:01 -33.64359 18.77891 7256 ft 273 kts 232°
2026-05-06 20:02 -33.65416 18.76000 6916 ft 273 kts 232°
2026-05-06 20:02 -33.66408 18.74062 6575 ft 273 kts 235°
2026-05-06 20:02 -33.67276 18.72275 6405 ft 266 kts 236°
2026-05-06 20:02 -33.68180 18.70393 6322 ft 254 kts 236°
2026-05-06 20:03 -33.69009 18.68640 6084 ft 240 kts 236°
2026-05-06 20:03 -33.69832 18.66896 5674 ft 245 kts 236°
2026-05-06 20:03 -33.70668 18.65128 5139 ft 237 kts 236°
2026-05-06 20:03 -33.71457 18.63444 4833 ft 230 kts 236°
2026-05-06 20:04 -33.72245 18.61765 4516 ft 231 kts 236°
2026-05-06 20:04 -33.73031 18.60092 4263 ft 229 kts 236°
2026-05-06 20:04 -33.73774 18.58488 4116 ft 208 kts 236°
2026-05-06 20:04 -33.74436 18.57035 4061 ft 192 kts 233°
2026-05-06 20:05 -33.75316 18.55949 3947 ft 175 kts 200°
2026-05-06 20:05 -33.76446 18.55467 3909 ft 176 kts 193°
2026-05-06 20:05 -33.77624 18.54988 3770 ft 175 kts 193°
2026-05-06 20:05 -33.78737 18.54861 3639 ft 152 kts 167°
2026-05-06 20:06 -33.79748 18.55038 3499 ft 142 kts 168°
2026-05-06 20:06 -33.80688 18.55227 3324 ft 131 kts 165°
2026-05-06 20:06 -33.81543 18.55453 3168 ft 122 kts 162°
2026-05-06 20:06 -33.82374 18.55697 3081 ft 123 kts 162°
2026-05-06 20:07 -33.83211 18.55954 2911 ft 123 kts 162°
2026-05-06 20:07 -33.84039 18.56212 2750 ft 123 kts 161°
2026-05-06 20:07 -33.84861 18.56471 2574 ft 122 kts 162°
2026-05-06 20:07 -33.85659 18.56724 2433 ft 119 kts 162°
2026-05-06 20:08 -33.86475 18.56982 2258 ft 121 kts 162°
2026-05-06 20:08 -33.87293 18.57241 2087 ft 122 kts 162°
2026-05-06 20:08 -33.88096 18.57497 1917 ft 119 kts 162°
2026-05-06 20:08 -33.88894 18.57751 1762 ft 119 kts 163°
2026-05-06 20:09 -33.89712 18.58010 1563 ft 122 kts 163°
2026-05-06 20:09 -33.90532 18.58270 1387 ft 121 kts 164°
2026-05-06 20:09 -33.91346 18.58528 1207 ft 121 kts 163°
2026-05-06 20:09 -33.92149 18.58783 1043 ft 123 kts 165°
2026-05-06 20:10 -33.92989 18.59050 852 ft 121 kts 164°
2026-05-06 20:10 -33.93821 18.59314 679 ft 124 kts 164°
2026-05-06 20:10 -33.94649 18.59576 491 ft 122 kts 165°
2026-05-06 20:10 -33.95451 18.59830 316 ft 118 kts 164°
2026-05-06 20:11 -33.96260 18.60088 174 ft 122 kts 165°
2026-05-06 20:11 -33.96991 18.60323 161 ft 90 kts 165°
2026-05-06 20:11 -33.97448 18.60468 155 ft 45 kts 165°
2026-05-06 20:11 -33.97687 18.60544 158 ft 30 kts 165°
2026-05-06 20:12 -33.97769 18.60550 159 ft 5 kts 233°
2026-05-06 20:12 -33.97782 18.60503 158 ft 8 kts 270°
2026-05-06 20:12 -33.97773 18.60440 158 ft 8 kts 282°
2026-05-06 20:12 -33.97760 18.60377 160 ft 8 kts 284°
2026-05-06 20:13 -33.97744 18.60300 161 ft 15 kts 284°
2026-05-06 20:13 -33.97695 18.60188 161 ft 16 kts 326°
2026-05-06 20:13 -33.97594 18.60137 161 ft 16 kts 338°
2026-05-06 20:13 -33.97496 18.60084 161 ft 16 kts 339°
2026-05-06 20:14 -33.97392 18.60046 161 ft 16 kts 345°
2026-05-06 20:14 -33.97286 18.60012 161 ft 16 kts 345°
2026-05-06 20:14 -33.97181 18.59979 161 ft 16 kts 345°
2026-05-06 20:14 -33.97074 18.59956 161 ft 16 kts 348°
2026-05-06 20:15 -33.96970 18.59921 161 ft 16 kts 344°
2026-05-06 20:15 -33.96864 18.59887 161 ft 16 kts 345°
2026-05-06 20:15 -33.96763 18.59856 161 ft 8 kts 345°
2026-05-06 20:15 -33.96707 18.59839 161 ft 8 kts 345°
2026-05-06 20:16 -33.96656 18.59823 161 ft 6 kts 345°
2026-05-06 20:16 -33.96636 18.59812 161 ft 3 kts 321°
2026-05-06 20:16 -33.96632 18.59788 161 ft 3 kts 268°
2026-05-06 20:16 -33.96636 18.59763 161 ft 3 kts 257°
2026-05-06 20:17 -33.96641 18.59739 161 ft 3 kts 256°
2026-05-06 20:17 -33.96646 18.59716 161 ft 0 kts 256°